Regional Weather Roundup
Issued by NWS

Home | Current Version | Previous Version | Graphics & Text | Print | Product List | Glossary On
Versions: 1 2 3 4 5 6 7 8 9 10 11 12 13 14 15 16 17 18 19 20 21 22 23 24 25 26 27 28 29 30 31 32 33 34 35 36 37 38 39 40 41 42 43 44 45 46 47 48 49 50
638
ASUS45 KCYS 061710
RWRWY

WYOMING REGIONAL WEATHER ROUNDUP
NATIONAL WEATHER SERVICE CHEYENNE WY
1000 AM MST SAT FEB 06 2016

NOTE:  "FAIR" INDICATES FEW OR NO CLOUDS BELOW 12,000 FEET
WITH NO SIGNIFICANT WEATHER AND/OR OBSTRUCTIONS TO VISIBILITY.

WYZ001-061800-
YELLOWSTONE NATIONAL PARK

CITY           SKY/WX    TMP DP  RH WIND       PRES   REMARKS
LK YELLOWSTONE   N/A     21  16  81 VRB7G17   30.26F WCI  12
W YELLOWSTONE  NOT AVBL

$$
WYZ002>013-054>058-071-098>099-061800-
NORTHERN WYOMING

CITY           SKY/WX    TMP DP  RH WIND       PRES   REMARKS
JACKSON        SUNNY     25  19  80 S15       30.34S WCI  12
CODY           FAIR      43  18  36 NE5       30.06R
GREYBULL       FAIR      27  17  66 SE9       30.13F WCI  18
WORLAND        FAIR      24  17  74 S5        30.14F WCI  18
SHERIDAN       FAIR      36  24  62 W3        29.92S
BUFFALO        FAIR      42  22  44 SE8       29.94F
GILLETTE       FAIR      36  23  59 SW24G32   29.96F WCI  24
HULETT         FAIR      37  21  52 SW15G23   29.97F WCI  28
NEWCASTLE      FAIR      34  21  60 SE8       30.07F WCI  27

$$
WYZ014>020-022>026-101>103-061800-
CENTRAL WYOMING

CITY           SKY/WX    TMP DP  RH WIND       PRES   REMARKS
BIG PINEY      FAIR      16  10  77 W3        30.38S
PINEDALE       FAIR      21  12  68 NW3       30.36S
DUBOIS         FAIR      30  16  55 N25G36    30.19F WCI  16
LANDER         FAIR      29  13  51 VRB3      30.19F
RIVERTON       FAIR      21  11  65 E7        30.19F WCI  12
CASPER         FAIR      28  19  69 SW26G45   30.18S WCI  13
DOUGLAS        FAIR      36  22  56 W24         N/A  WCI  24

$$
WYZ021-027>030-104>119-061800-
SOUTHERN WYOMING

CITY           SKY/WX    TMP DP  RH WIND       PRES   REMARKS
EVANSTON       FAIR      16  12  84 SW15      30.42F WCI   1
FORT BRIDGER   SUNNY     27  18  69 W21       30.44S WCI  13
ROCK SPRINGS   FAIR      24  16  71 SW20G30   30.39F WCI  10
DIXON          FAIR      10   4  75 NE5       30.49R WCI   2
RAWLINS        FAIR      24  14  65 W16G25    30.30F WCI  11
SARATOGA       PTSUNNY   28  14  54 SE3       30.34S
LARAMIE        FAIR      31  15  52 SW16      30.22S WCI  20
CHEYENNE       FAIR      35  18  49 W30G41    30.11F WCI  22
TORRINGTON     FAIR      38  20  48 W22       30.13S WCI  27
PINE BLUFFS    FAIR      36  21  55 SW6       30.18S WCI  31

$$




USA.gov is the U.S. government's official web portal to all federal, state and local government web resources and services.